Simultaneous Nadir Overpasses (SNOs) Predictions

Prediction of SNOs between GOES-16 and LANDSAT-8 Satellite Orbit:

Table of predicted SNOs for the next 14.0 days since TLE Epoch: 7/10/2021
Index Date Time (GOES-16) GOES-16 Lat,Lon LANDSAT-8 Lat,Lon Distance(km) Time Diff (sec)
1 07/10/2021 14:54:14 -0.03, -75.16 -0.94, -70.96 478.59 80
2 07/11/2021 03:18:17 0.01, -75.14 -0.19, -76.15 114.06 80
3 07/13/2021 03:03:26 0.02, -75.16 0.45, -73.19 224.60 80
4 07/13/2021 15:27:21 -0.01, -75.20 0.67, -78.34 357.50 80
5 07/15/2021 15:15:10 -0.02, -75.23 0.02, -75.38 17.96 80
6 07/17/2021 15:00:19 -0.02, -75.26 -0.63, -72.43 322.11 80
7 07/18/2021 03:24:23 0.01, -75.24 -0.50, -77.61 269.83 80
8 07/20/2021 03:09:32 0.01, -75.28 0.16, -74.66 70.49 80
9 07/22/2021 02:57:20 0.01, -75.31 0.75, -71.69 410.95 80
10 07/22/2021 15:21:16 0.00, -75.35 0.31, -76.85 170.88 80
